SCP
-0 -0 0 0 0 0 0 0 0 0 0 0 0 0 0 0 0 0 0 0 0 0 -0 -0 0 0 0 0 -0 -0 0 0 0 0 -0 0 -0 -0 -0 -0 -0 -0 -0 -0 -0 -0 -0 0 0
-0 -0 -0 0 0 0 0 -0 0 0 0 0 0 0 0 0 0 0 0 0 0 0 -0 -0 0 0 0 0 0 0 0 0 -0 -0 -0 -0 -0 -0 -0 -0 -0 -0 -0 0 0 0 0 0 0
-0 0 0 0 0 0 0 -0 0 0 0 0 0 0 0 0 0 -0 0 0 0 0 -0 0 0 0 0 0 0 0 0 -0 0 -0 -0 -0 -0 -0 0 0 0 0 0 0 0 0 0 0 0
0 0 0 0 0 0 0 0 0 0 0 0 0 0 0 0 0 0 0 -0 0 0 0 0 0 0 0 0 0 0 0 0 -0 -0 -0 -0 0 0 0 0 0 0 0 0 0 0 0 0 0
0 0 0 0 0 0 0 0 0 0 0 0 0 0 0 0 0 0 0 0 0 0 0 0 0 0 0 0 0 0 0 0 -0 -0 -0 -0 -0 0 0 0 0 0 0 0 0 0 0 0 0
0 0 0 0 0 0 0 0 -0 0 0 0 0 0 0 0 0 0 0 0 0 0 0 0 0 0 0 0 0 0 0 0 0 0 0 0 0 0 0 0 0 0 0 0 0 0 0 0 0
0 0 0 0 0 0 0 0 0 0 0 0 0 0 0 0 0 0 0 0 0 0 0 0 0 0 0 0 0 0 0 0 0 0 0 0 0 0 0 0 0 0 0 0 0 0 0 0 0
0 0 0 0 0 0 0 0 0 0 0 0 0 0 0 0 0 0 0 0 0 0 0 0 0 0 0 0 0 0 0 0 0 0 0 0 0 0 0 0 0 0 0 0 0 0 0 0 0
0 0 0 0 0 0 0 0 0 0 0 0 0 0 0 0 0 0 0 0 0 0 0 0 0 0 0 0 0 0 0 0 0 0 0 0 0 0 0 0 0 0 0 0 0 0 0 0 0
0 0 0 0 0 0 0 0 0 0 0 0 0 0 0 0 0 0 0 0 0 0 0 0 0 0 0 0 0 0 0 0 0 0 0 0 0 0 0 0 0 0 0 0 0 0 0 0 0
0 0 0 0 0 0 0 0 0 0 0 0 0 0 0 0 0 0 0 0 0 0 0 0 0 0 0 0 0 0 0 0 0 0 0 0 0 0 0 0 0 0 0 0 0 0 0 0 0
0 0 0 0 0 0 0 0 0 0 0 0 0 0 0 0 0 0 0 0 0 0 0 0 0 0 0 0 0 0 0 0 0 0 0 0 0 0 0 0 0 0 0 0 0 0 0 0 0
0 0 0 0 0 0 0 0 0 0 0 0 0 0 0 0 0 0 0 0 0 0 0 0 0 0 0 0 0 0 0 0 0 0 0 0 0 0 0 0 0 0 0 0 0 0 0 0 0
0 0 0 0 0 0 0 0 0 0 0 0 0 0 0 0 0 0 0 0 0 0 0 0 0 0 0 0 0 0 0 0 0 0 0 0 0 0 0 0 0 0 0 0 0 0 0 0 0
0 0 0 0 0 0 0 0 0 0 0 0 0 0 0 0 0 0 0 0 0 0 0 0 0 0 0 0 0 0 0 0 0 0 0 0 0 0 0 0 0 0 0 0 0 0 0 0 0
0 0 0 0 0 0 0 0 0 0 0 0 0 0 0 0 0 0 0 0 0 0 0 0 0 0 0 0 0 0 0 0 0 0 0 0 0 0 0 0 0 0 0 0 0 0 0 0 0
0 0 0 0 0 0 0 0 0 0 0 0 0 0 0 0 0 0 0 0 0 0 0 0 0 0 0 0 0 0 0 0 0 0 0 0 0 0 0 0 0 0 0 0 0 0 0 0 0
0 0 0 0 0 0 0 0 0 0 0 0 0 0 0 0 0 0 0 0 0 0 0 0 0 0 0 0 0 0 0 0 0 0 0 0 0 0 0 0 0 0 0 0 0 0 0 0 0
0 0 0 0 0 0 0 0 0 0 0 0 0 0 0 0 0 0 0 0 0 0 0 0 0 0 0 0 0 0 0 0 0 0 0 0 0 0 0 0 0 0 0 0 0 0 0 0 0
0 0 0 0 0 0 0 0 0 0 0 0 0 0 0 0 0 0 0 0 0 0 0 0 0 0 0 0 0 0 0 0 0 0 0 0 0 0 0 0 0 0 0 0 0 0 0 0 0
0 0 0 0 0 0 0 0 0 0 0 0 0 0 0 0 0 0 0 0 0 0 0 0 0 0 0 0 0 0 0 0 0 0 0 0 0 0 0 0 0 0 0 0 0 0 0 0 0
0 0 0 0 0 0 0 0 0 0 0 0 0 0 0 0 0 0 0 0 0 0 0 0 0 0 0 0 0 0 0 0 0 0 0 0 0 0 0 0 0 0 0 0 0 0 0 0 0
0 0 0 0 0 0 0 0 -0 0 0 0 0 0 0 0 0 0 0 0 0 0 0 0 0 0 0 0 0 0 0 0 0 0 0 0 0 0 0 0 0 0 0 0 0 0 0 0 0
0 0 0 0 0 0 0 0 -0 -0 -0 0 0 0 0 0 0 0 0 0 0 0 0 0 0 0 0 0 0 0 0 0 0 0 0 0 0 0 0 0 0 0 0 0 0 0 0 0 0
0 0 0 0 0 0 0 0 0 0 0 0 0 0 0 0 0 0 0 0 0 0 0 0 0 0 0 0 0 0 0 0 0 0 0 0 0 0 0 0 0 0 0 0 0 0 0 0 0
-0 0 0 0 0 0 0 0 0 0 0 0 0 0 0 0 0 0 0 0 0 0 0 0 0 0 0 0 0 0 0 0 0 0 0 0 0 0 0 0 0 0 0 0 0 0 0 0 0
0 0 0 0 0 0 0 0 0 0 0 0 0 0 0 0 0 0 0 0 0 0 0 0 0 0 0 0 0 0 0 0 0 0 0 0 0 0 0 0 0 0 0 0 0 0 0 0 0
0 0 0 0 0 0 0 0 0 0 0 0 0 0 0 0 0 0 0 0 0 0 0 0 0 0 0 0 0 0 0 0 0 0 0 0 0 0 0 0 0 0 0 0 0 0 0 0 0
0 0 0 0 0 0 0 0 0 0 0 0 0 0 0 0 0 0 0 0 0 0 0 0 0 0 0 0 0 0 0 0 0 0 0 0 0 0 0 0 0 0 0 0 0 0 0 0 0
0 0 0 0 0 0 0 0 0 0 0 0 0 0 0 -0 -0 -0 0 0 0 0 0 0 0 0 0 0 0 0 0 0 0 0 0 0 0 0 0 0 0 0 0 0 0 0 0 0 0
Wind_Speed_500mb
36 20 2 6 12 6 8 8 8 13 13 7 6 6 14 14 15 9 26 24 32 36 32 26 19 17 23 26 23 19 13 10 8 8 7 8 8 7 9 9 13 17 20 20 19 19 20 20 20
34 16 3 8 12 9 12 14 11 12 14 11 7 2 3 12 14 17 29 31 35 32 29 23 19 15 20 26 25 21 13 6 7 7 7 8 10 9 10 11 16 19 15 20 13 15 18 19 19
31 9 11 6 7 10 10 11 14 15 13 5 5 3 6 9 8 28 22 40 36 33 27 24 21 18 20 25 23 21 13 6 4 6 6 10 10 10 10 11 15 11 14 14 19 9 15 17 18
21 8 9 13 9 10 13 13 16 16 7 2 4 9 9 8 16 15 34 40 35 33 27 22 15 14 14 18 21 22 21 12 5 4 3 6 13 12 12 13 14 10 7 7 14 11 12 15 15
16 12 8 5 8 9 7 12 16 14 11 10 4 11 9 8 18 26 32 35 34 32 28 22 18 15 11 10 12 14 16 14 11 6 3 5 7 9 8 9 11 14 9 4 6 8 8 8 9
15 8 11 15 10 11 10 14 13 9 7 12 6 11 12 14 21 25 29 33 28 32 29 25 21 18 18 17 17 21 22 21 17 14 11 8 11 11 9 9 8 8 11 8 4 4 1 3 4
17 12 8 4 15 12 13 15 13 11 13 9 4 6 11 17 21 23 29 29 30 27 30 26 21 17 16 15 15 15 20 22 22 18 14 13 10 11 10 12 10 9 11 11 8 4 5 6 6
12 10 10 14 17 11 18 20 10 9 10 6 7 6 16 22 24 27 28 29 28 29 26 24 24 21 19 18 17 17 19 25 24 23 21 17 16 17 17 16 16 14 12 13 13 10 12 13 13
7 12 16 16 15 16 22 20 12 8 9 9 9 5 16 27 26 29 37 32 31 40 35 30 28 26 24 22 19 19 20 22 25 28 30 23 18 17 19 18 20 19 18 18 19 18 19 20 19
15 16 22 3 13 13 26 24 21 13 17 16 14 12 15 20 24 29 35 41 39 38 38 34 29 27 27 25 25 24 23 24 24 25 28 26 19 19 21 24 25 22 24 20 22 24 26 25 23
10 17 1 5 1 6 21 22 20 20 19 20 23 23 22 23 27 27 28 30 30 32 36 37 32 30 31 29 28 27 28 26 25 26 26 26 23 26 26 26 27 26 25 24 23 25 24 23 22
14 9 6 3 1 5 16 15 18 26 7 3 9 16 24 26 28 28 29 29 29 29 30 33 36 37 33 30 31 28 29 29 29 29 29 30 30 29 27 26 26 27 24 26 23 26 27 27 31
19 6 9 3 3 5 2 16 17 22 21 6 8 15 21 22 26 26 25 26 28 29 30 30 30 33 37 38 31 31 31 33 33 33 34 34 34 33 31 31 32 31 30 30 30 30 30 32 34
4 10 9 9 12 8 9 18 6 23 21 18 12 14 20 24 26 25 28 29 30 29 29 28 29 26 31 36 38 34 33 34 36 37 39 39 39 38 37 36 37 37 36 35 36 34 34 36 37
6 11 13 19 15 13 8 26 29 30 10 24 28 22 19 23 26 30 29 29 28 29 30 32 32 33 35 35 37 40 42 38 38 39 39 42 42 42 42 40 40 39 38 39 40 41 43 44 44
12 7 18 17 19 9 10 25 29 15 24 33 31 29 32 34 34 33 32 32 30 29 30 32 38 40 43 45 46 45 45 48 44 42 42 44 43 44 44 46 45 42 41 42 44 43 44 46 45
12 14 31 16 11 8 19 18 28 5 16 27 30 35 41 43 44 41 37 36 37 36 37 39 42 47 47 51 51 52 53 53 54 48 46 46 46 45 46 46 45 41 43 43 44 45 44 44 44
16 18 10 18 8 13 23 28 25 17 16 23 28 33 38 43 51 43 42 40 39 42 44 45 48 48 46 44 47 50 51 53 54 52 52 49 49 49 47 47 47 45 48 50 50 51 48 48 48
12 16 20 9 12 7 24 30 33 43 45 43 47 49 55 59 58 51 49 46 44 45 44 48 44 48 47 48 48 47 53 58 62 57 55 54 52 50 49 47 48 49 54 53 52 53 55 58 57
12 15 16 9 8 7 21 32 36 47 46 51 55 58 57 55 56 54 47 45 46 47 48 53 56 58 51 50 50 46 41 45 53 54 56 52 55 52 50 48 48 50 53 52 53 54 59 60 59
24 21 18 14 9 21 24 30 38 34 49 51 60 63 55 52 50 46 38 39 40 47 54 55 54 53 54 53 47 48 44 46 42 41 41 41 41 40 42 43 45 46 48 52 52 52 55 59 58
25 19 18 15 10 9 4 15 17 12 23 27 35 36 39 34 32 32 31 32 32 36 41 54 54 54 53 52 53 54 52 48 39 31 32 36 37 37 37 42 41 43 48 51 54 54 54 54 59
10 9 14 17 18 18 26 14 11 2 18 27 25 12 6 6 14 18 21 28 34 39 41 43 46 50 53 55 54 49 49 43 35 31 35 33 35 41 44 45 47 49 51 54 53 55 55 56 58
11 15 10 6 8 13 29 24 13 14 14 3 6 11 8 9 9 10 15 15 14 16 24 31 33 37 38 38 40 39 37 34 34 39 39 39 38 39 41 42 41 43 46 50 53 52 54 58 59
25 24 6 7 9 14 6 18 26 15 9 9 4 8 12 12 7 6 3 6 6 9 12 15 18 20 24 28 27 28 32 35 36 36 33 33 29 27 27 33 36 38 41 44 45 48 50 53 57
38 29 8 11 11 2 8 15 6 11 2 6 13 12 19 14 10 9 6 6 8 11 12 13 13 12 13 13 14 16 19 21 23 23 25 26 28 31 34 35 37 40 40 41 41 43 44 45 49
28 27 7 7 3 6 13 19 20 19 13 14 9 6 12 8 9 9 10 12 13 12 12 13 13 12 12 13 14 15 15 17 19 20 21 23 27 29 32 34 36 38 40 43 44 46 47 47 52
13 21 8 8 9 13 14 14 15 7 16 10 18 20 16 11 6 8 14 17 14 13 15 15 14 13 11 10 10 11 10 11 13 17 20 22 25 29 31 32 34 36 38 39 41 43 46 47 50
16 20 13 10 14 6 7 4 6 9 11 15 10 9 20 19 18 15 20 24 21 19 18 16 13 10 7 5 6 7 9 12 15 18 21 23 25 26 28 31 33 35 37 39 40 41 43 45 46
26 29 33 9 12 14 14 13 7 9 19 11 13 1 8 7 9 17 24 30 30 29 26 20 13 9 8 8 10 13 15 18 20 22 25 28 29 31 32 34 35 37 37 40 40 42 44 45 48
Wind_Direction_500mb
353 350 94 238 245 223 135 131 102 124 150 74 95 325 26 19 6 44 140 136 150 159 161 156 149 152 157 144 149 153 165 157 164 161 158 162 163 144 138 110 97 103 99 75 74 73 74 80 87
348 352 262 268 268 230 105 124 159 109 81 118 123 172 183 83 60 121 144 143 150 154 158 157 149 152 163 164 166 173 177 173 175 184 186 168 160 148 145 132 105 96 85 101 92 53 69 78 86
339 321 261 273 283 42 103 153 120 110 118 133 140 339 18 62 76 137 158 148 156 156 148 165 156 156 164 177 170 165 159 142 124 147 166 179 158 153 157 160 120 103 96 89 116 104 79 81 84
333 236 222 249 93 73 76 125 123 142 154 152 314 118 93 82 133 154 152 157 156 164 159 158 156 161 165 177 183 179 170 171 140 79 135 171 157 156 164 171 138 117 92 98 114 96 89 82 83
295 253 228 204 128 118 115 114 150 153 129 138 188 111 87 111 129 140 150 159 166 166 174 167 166 166 170 168 183 198 189 174 190 188 236 208 205 185 185 177 162 163 156 148 108 94 88 83 75
276 267 231 197 140 129 123 148 160 147 125 119 186 123 99 142 144 148 157 162 176 173 186 186 183 179 175 176 186 194 194 186 199 217 227 270 231 212 207 212 214 196 199 207 181 138 69 27 26
282 268 268 146 154 159 151 164 195 161 151 137 107 138 115 147 160 157 160 168 176 184 188 200 195 192 192 193 195 205 211 213 204 214 230 243 229 221 225 219 226 250 243 227 236 241 254 282 299
276 270 214 208 181 162 155 169 170 189 128 130 170 140 146 168 166 169 164 173 183 184 191 202 206 202 206 204 202 205 209 220 225 229 225 233 234 232 244 241 236 245 259 267 257 255 258 267 278
265 250 221 202 198 157 163 183 179 178 158 173 174 105 146 165 186 189 183 175 193 196 191 201 208 210 210 215 216 217 217 220 224 230 231 238 249 260 254 260 247 249 252 256 258 263 265 265 268
228 239 235 241 199 172 180 199 177 186 188 198 176 190 177 191 190 197 197 196 205 204 204 206 208 212 213 215 224 225 228 228 230 231 235 241 240 237 236 243 264 265 265 266 263 263 266 269 273
196 239 290 137 141 276 179 198 187 212 200 210 206 194 193 190 192 197 202 212 218 217 218 214 208 214 220 213 222 230 232 233 235 235 232 236 234 245 259 252 264 263 267 268 276 276 269 273 266
233 239 291 133 235 206 191 199 209 219 160 150 176 176 187 190 193 196 200 203 205 210 221 225 225 216 219 221 230 228 230 237 236 241 240 242 244 248 249 255 250 262 251 269 247 255 265 258 267
231 202 216 187 227 220 270 218 237 228 230 215 189 188 194 201 203 203 206 207 206 210 211 220 228 229 227 226 226 231 233 240 238 241 247 247 249 251 252 254 256 254 258 259 262 260 258 265 272
168 213 219 222 215 228 247 223 256 229 221 217 210 210 208 207 209 209 210 211 213 215 216 219 231 240 238 238 235 232 237 237 246 243 248 251 249 251 252 254 258 260 261 261 264 263 265 271 270
148 210 232 224 218 230 242 244 230 232 186 230 228 226 219 218 221 223 226 225 225 227 223 227 233 241 252 255 250 245 241 246 245 250 249 250 253 251 251 257 258 261 263 263 262 265 270 270 270
203 243 227 191 215 201 217 251 239 238 234 239 237 234 234 239 238 236 236 235 233 231 231 237 243 248 252 254 261 258 254 250 251 249 253 253 255 256 254 256 260 262 261 264 267 267 268 272 273
205 235 221 194 203 246 223 251 245 172 235 250 244 242 244 248 249 246 243 239 239 240 242 243 246 255 254 251 252 257 260 254 251 252 256 257 259 257 257 259 264 261 261 261 264 268 267 268 270
207 224 213 232 129 231 247 248 256 219 235 254 259 253 252 253 253 253 251 249 246 243 247 246 244 248 248 251 252 249 251 259 256 250 253 255 258 258 257 260 261 258 261 264 265 265 265 266 267
303 214 240 200 83 284 246 257 262 264 266 262 258 257 257 255 259 259 255 254 249 246 245 248 248 246 247 248 249 252 252 253 260 259 259 254 255 257 260 261 259 259 264 270 271 269 268 272 272
229 226 231 269 244 257 274 271 270 263 258 254 257 255 257 262 260 259 256 253 248 249 247 250 249 249 247 247 253 253 256 256 262 263 263 260 253 253 257 262 263 261 265 270 269 267 269 274 273
224 236 245 260 319 251 289 279 248 250 249 251 255 257 261 262 263 263 258 251 251 245 251 250 250 247 244 245 244 250 247 253 258 256 258 261 258 257 258 264 264 267 267 271 273 270 268 273 277
228 227 250 266 272 272 92 289 276 254 242 229 251 252 260 263 265 262 258 255 252 248 236 241 241 242 243 241 245 248 250 249 258 264 258 257 263 267 266 271 270 269 270 271 275 276 275 274 272
244 150 218 240 257 283 257 249 246 220 261 253 246 232 236 267 282 258 248 248 246 245 240 239 240 245 245 247 245 245 246 239 237 246 254 259 268 276 279 275 274 272 273 277 276 277 276 275 273
140 155 158 199 248 254 235 218 259 188 259 200 137 165 208 315 303 288 252 254 256 246 233 231 237 239 238 240 245 244 241 238 238 250 259 268 272 270 271 274 272 272 271 274 278 276 275 276 276
184 168 153 211 208 251 100 208 260 279 210 199 230 285 289 296 271 267 212 190 183 174 180 192 205 214 223 230 235 236 233 235 241 249 255 257 263 268 273 275 280 279 278 277 275 274 274 273 273
196 189 202 255 217 233 143 230 234 268 44 231 243 273 293 283 242 236 211 182 179 174 171 170 177 182 187 196 206 215 220 226 231 239 248 259 267 272 277 281 284 285 285 283 282 282 279 278 274
195 215 288 292 116 273 216 235 280 244 219 206 244 312 326 310 231 225 229 211 202 195 190 193 195 199 203 206 208 214 220 229 240 250 260 270 279 288 292 294 294 294 293 292 289 286 283 276 272
224 174 175 225 229 241 243 253 241 206 172 119 103 67 34 11 315 255 260 251 239 226 219 214 210 211 213 218 225 233 241 257 271 278 282 288 295 299 302 304 305 303 300 297 294 291 289 287 284
189 205 220 252 223 261 297 248 110 187 124 126 104 55 19 358 333 282 258 259 249 236 228 216 206 198 195 213 245 270 282 286 291 297 300 303 304 305 308 311 310 308 306 303 299 294 290 284 281
236 217 211 216 202 235 283 263 143 123 141 85 2 322 331 346 334 302 280 266 252 241 226 214 200 201 216 243 269 289 301 304 303 303 304 305 305 307 309 308 308 308 308 306 303 300 298 295 291
Wind_Speed_850mb
36 20 2 6 12 6 8 8 8 13 13 7 6 6 14 14 15 9 26 24 32 36 32 26 19 17 23 26 23 19 13 10 8 8 7 8 8 7 9 9 13 17 20 20 19 19 20 20 20
34 16 3 8 12 9 12 14 11 12 14 11 7 2 3 12 14 17 29 31 35 32 29 23 19 15 20 26 25 21 13 6 7 7 7 8 10 9 10 11 16 19 15 20 13 15 18 19 19
31 9 11 6 7 10 10 11 14 15 13 5 5 3 6 9 8 28 22 40 36 33 27 24 21 18 20 25 23 21 13 6 4 6 6 10 10 10 10 11 15 11 14 14 19 9 15 17 18
21 8 9 13 9 10 13 13 16 16 7 2 4 9 9 8 16 15 34 40 35 33 27 22 15 14 14 18 21 22 21 12 5 4 3 6 13 12 12 13 14 10 7 7 14 11 12 15 15
16 12 8 5 8 9 7 12 16 14 11 10 4 11 9 8 18 26 32 35 34 32 28 22 18 15 11 10 12 14 16 14 11 6 3 5 7 9 8 9 11 14 9 4 6 8 8 8 9
15 8 11 15 10 11 10 14 13 9 7 12 6 11 12 14 21 25 29 33 28 32 29 25 21 18 18 17 17 21 22 21 17 14 11 8 11 11 9 9 8 8 11 8 4 4 1 3 4
17 12 8 4 15 12 13 15 13 11 13 9 4 6 11 17 21 23 29 29 30 27 30 26 21 17 16 15 15 15 20 22 22 18 14 13 10 11 10 12 10 9 11 11 8 4 5 6 6
12 10 10 14 17 11 18 20 10 9 10 6 7 6 16 22 24 27 28 29 28 29 26 24 24 21 19 18 17 17 19 25 24 23 21 17 16 17 17 16 16 14 12 13 13 10 12 13 13
7 12 16 16 15 16 22 20 12 8 9 9 9 5 16 27 26 29 37 32 31 40 35 30 28 26 24 22 19 19 20 22 25 28 30 23 18 17 19 18 20 19 18 18 19 18 19 20 19
15 16 22 3 13 13 26 24 21 13 17 16 14 12 15 20 24 29 35 41 39 38 38 34 29 27 27 25 25 24 23 24 24 25 28 26 19 19 21 24 25 22 24 20 22 24 26 25 23
10 17 1 5 1 6 21 22 20 20 19 20 23 23 22 23 27 27 28 30 30 32 36 37 32 30 31 29 28 27 28 26 25 26 26 26 23 26 26 26 27 26 25 24 23 25 24 23 22
14 9 6 3 1 5 16 15 18 26 7 3 9 16 24 26 28 28 29 29 29 29 30 33 36 37 33 30 31 28 29 29 29 29 29 30 30 29 27 26 26 27 24 26 23 26 27 27 31
19 6 9 3 3 5 2 16 17 22 21 6 8 15 21 22 26 26 25 26 28 29 30 30 30 33 37 38 31 31 31 33 33 33 34 34 34 33 31 31 32 31 30 30 30 30 30 32 34
4 10 9 9 12 8 9 18 6 23 21 18 12 14 20 24 26 25 28 29 30 29 29 28 29 26 31 36 38 34 33 34 36 37 39 39 39 38 37 36 37 37 36 35 36 34 34 36 37
6 11 13 19 15 13 8 26 29 30 10 24 28 22 19 23 26 30 29 29 28 29 30 32 32 33 35 35 37 40 42 38 38 39 39 42 42 42 42 40 40 39 38 39 40 41 43 44 44
12 7 18 17 19 9 10 25 29 15 24 33 31 29 32 34 34 33 32 32 30 29 30 32 38 40 43 45 46 45 45 48 44 42 42 44 43 44 44 46 45 42 41 42 44 43 44 46 45
12 14 31 16 11 8 19 18 28 5 16 27 30 35 41 43 44 41 37 36 37 36 37 39 42 47 47 51 51 52 53 53 54 48 46 46 46 45 46 46 45 41 43 43 44 45 44 44 44
16 18 10 18 8 13 23 28 25 17 16 23 28 33 38 43 51 43 42 40 39 42 44 45 48 48 46 44 47 50 51 53 54 52 52 49 49 49 47 47 47 45 48 50 50 51 48 48 48
12 16 20 9 12 7 24 30 33 43 45 43 47 49 55 59 58 51 49 46 44 45 44 48 44 48 47 48 48 47 53 58 62 57 55 54 52 50 49 47 48 49 54 53 52 53 55 58 57
12 15 16 9 8 7 21 32 36 47 46 51 55 58 57 55 56 54 47 45 46 47 48 53 56 58 51 50 50 46 41 45 53 54 56 52 55 52 50 48 48 50 53 52 53 54 59 60 59
24 21 18 14 9 21 24 30 38 34 49 51 60 63 55 52 50 46 38 39 40 47 54 55 54 53 54 53 47 48 44 46 42 41 41 41 41 40 42 43 45 46 48 52 52 52 55 59 58
25 19 18 15 10 9 4 15 17 12 23 27 35 36 39 34 32 32 31 32 32 36 41 54 54 54 53 52 53 54 52 48 39 31 32 36 37 37 37 42 41 43 48 51 54 54 54 54 59
10 9 14 17 18 18 26 14 11 2 18 27 25 12 6 6 14 18 21 28 34 39 41 43 46 50 53 55 54 49 49 43 35 31 35 33 35 41 44 45 47 49 51 54 53 55 55 56 58
11 15 10 6 8 13 29 24 13 14 14 3 6 11 8 9 9 10 15 15 14 16 24 31 33 37 38 38 40 39 37 34 34 39 39 39 38 39 41 42 41 43 46 50 53 52 54 58 59
25 24 6 7 9 14 6 18 26 15 9 9 4 8 12 12 7 6 3 6 6 9 12 15 18 20 24 28 27 28 32 35 36 36 33 33 29 27 27 33 36 38 41 44 45 48 50 53 57
38 29 8 11 11 2 8 15 6 11 2 6 13 12 19 14 10 9 6 6 8 11 12 13 13 12 13 13 14 16 19 21 23 23 25 26 28 31 34 35 37 40 40 41 41 43 44 45 49
28 27 7 7 3 6 13 19 20 19 13 14 9 6 12 8 9 9 10 12 13 12 12 13 13 12 12 13 14 15 15 17 19 20 21 23 27 29 32 34 36 38 40 43 44 46 47 47 52
13 21 8 8 9 13 14 14 15 7 16 10 18 20 16 11 6 8 14 17 14 13 15 15 14 13 11 10 10 11 10 11 13 17 20 22 25 29 31 32 34 36 38 39 41 43 46 47 50
16 20 13 10 14 6 7 4 6 9 11 15 10 9 20 19 18 15 20 24 21 19 18 16 13 10 7 5 6 7 9 12 15 18 21 23 25 26 28 31 33 35 37 39 40 41 43 45 46
26 29 33 9 12 14 14 13 7 9 19 11 13 1 8 7 9 17 24 30 30 29 26 20 13 9 8 8 10 13 15 18 20 22 25 28 29 31 32 34 35 37 37 40 40 42 44 45 48
Wind_Direction_850mb
353 350 94 238 245 223 135 131 102 124 150 74 95 325 26 19 6 44 140 136 150 159 161 156 149 152 157 144 149 153 165 157 164 161 158 162 163 144 138 110 97 103 99 75 74 73 74 80 87
348 352 262 268 268 230 105 124 159 109 81 118 123 172 183 83 60 121 144 143 150 154 158 157 149 152 163 164 166 173 177 173 175 184 186 168 160 148 145 132 105 96 85 101 92 53 69 78 86
339 321 261 273 283 42 103 153 120 110 118 133 140 339 18 62 76 137 158 148 156 156 148 165 156 156 164 177 170 165 159 142 124 147 166 179 158 153 157 160 120 103 96 89 116 104 79 81 84
333 236 222 249 93 73 76 125 123 142 154 152 314 118 93 82 133 154 152 157 156 164 159 158 156 161 165 177 183 179 170 171 140 79 135 171 157 156 164 171 138 117 92 98 114 96 89 82 83
295 253 228 204 128 118 115 114 150 153 129 138 188 111 87 111 129 140 150 159 166 166 174 167 166 166 170 168 183 198 189 174 190 188 236 208 205 185 185 177 162 163 156 148 108 94 88 83 75
276 267 231 197 140 129 123 148 160 147 125 119 186 123 99 142 144 148 157 162 176 173 186 186 183 179 175 176 186 194 194 186 199 217 227 270 231 212 207 212 214 196 199 207 181 138 69 27 26
282 268 268 146 154 159 151 164 195 161 151 137 107 138 115 147 160 157 160 168 176 184 188 200 195 192 192 193 195 205 211 213 204 214 230 243 229 221 225 219 226 250 243 227 236 241 254 282 299
276 270 214 208 181 162 155 169 170 189 128 130 170 140 146 168 166 169 164 173 183 184 191 202 206 202 206 204 202 205 209 220 225 229 225 233 234 232 244 241 236 245 259 267 257 255 258 267 278
265 250 221 202 198 157 163 183 179 178 158 173 174 105 146 165 186 189 183 175 193 196 191 201 208 210 210 215 216 217 217 220 224 230 231 238 249 260 254 260 247 249 252 256 258 263 265 265 268
228 239 235 241 199 172 180 199 177 186 188 198 176 190 177 191 190 197 197 196 205 204 204 206 208 212 213 215 224 225 228 228 230 231 235 241 240 237 236 243 264 265 265 266 263 263 266 269 273
196 239 290 137 141 276 179 198 187 212 200 210 206 194 193 190 192 197 202 212 218 217 218 214 208 214 220 213 222 230 232 233 235 235 232 236 234 245 259 252 264 263 267 268 276 276 269 273 266
233 239 291 133 235 206 191 199 209 219 160 150 176 176 187 190 193 196 200 203 205 210 221 225 225 216 219 221 230 228 230 237 236 241 240 242 244 248 249 255 250 262 251 269 247 255 265 258 267
231 202 216 187 227 220 270 218 237 228 230 215 189 188 194 201 203 203 206 207 206 210 211 220 228 229 227 226 226 231 233 240 238 241 247 247 249 251 252 254 256 254 258 259 262 260 258 265 272
168 213 219 222 215 228 247 223 256 229 221 217 210 210 208 207 209 209 210 211 213 215 216 219 231 240 238 238 235 232 237 237 246 243 248 251 249 251 252 254 258 260 261 261 264 263 265 271 270
148 210 232 224 218 230 242 244 230 232 186 230 228 226 219 218 221 223 226 225 225 227 223 227 233 241 252 255 250 245 241 246 245 250 249 250 253 251 251 257 258 261 263 263 262 265 270 270 270
203 243 227 191 215 201 217 251 239 238 234 239 237 234 234 239 238 236 236 235 233 231 231 237 243 248 252 254 261 258 254 250 251 249 253 253 255 256 254 256 260 262 261 264 267 267 268 272 273
205 235 221 194 203 246 223 251 245 172 235 250 244 242 244 248 249 246 243 239 239 240 242 243 246 255 254 251 252 257 260 254 251 252 256 257 259 257 257 259 264 261 261 261 264 268 267 268 270
207 224 213 232 129 231 247 248 256 219 235 254 259 253 252 253 253 253 251 249 246 243 247 246 244 248 248 251 252 249 251 259 256 250 253 255 258 258 257 260 261 258 261 264 265 265 265 266 267
303 214 240 200 83 284 246 257 262 264 266 262 258 257 257 255 259 259 255 254 249 246 245 248 248 246 247 248 249 252 252 253 260 259 259 254 255 257 260 261 259 259 264 270 271 269 268 272 272
229 226 231 269 244 257 274 271 270 263 258 254 257 255 257 262 260 259 256 253 248 249 247 250 249 249 247 247 253 253 256 256 262 263 263 260 253 253 257 262 263 261 265 270 269 267 269 274 273
224 236 245 260 319 251 289 279 248 250 249 251 255 257 261 262 263 263 258 251 251 245 251 250 250 247 244 245 244 250 247 253 258 256 258 261 258 257 258 264 264 267 267 271 273 270 268 273 277
228 227 250 266 272 272 92 289 276 254 242 229 251 252 260 263 265 262 258 255 252 248 236 241 241 242 243 241 245 248 250 249 258 264 258 257 263 267 266 271 270 269 270 271 275 276 275 274 272
244 150 218 240 257 283 257 249 246 220 261 253 246 232 236 267 282 258 248 248 246 245 240 239 240 245 245 247 245 245 246 239 237 246 254 259 268 276 279 275 274 272 273 277 276 277 276 275 273
140 155 158 199 248 254 235 218 259 188 259 200 137 165 208 315 303 288 252 254 256 246 233 231 237 239 238 240 245 244 241 238 238 250 259 268 272 270 271 274 272 272 271 274 278 276 275 276 276
184 168 153 211 208 251 100 208 260 279 210 199 230 285 289 296 271 267 212 190 183 174 180 192 205 214 223 230 235 236 233 235 241 249 255 257 263 268 273 275 280 279 278 277 275 274 274 273 273
196 189 202 255 217 233 143 230 234 268 44 231 243 273 293 283 242 236 211 182 179 174 171 170 177 182 187 196 206 215 220 226 231 239 248 259 267 272 277 281 284 285 285 283 282 282 279 278 274
195 215 288 292 116 273 216 235 280 244 219 206 244 312 326 310 231 225 229 211 202 195 190 193 195 199 203 206 208 214 220 229 240 250 260 270 279 288 292 294 294 294 293 292 289 286 283 276 272
224 174 175 225 229 241 243 253 241 206 172 119 103 67 34 11 315 255 260 251 239 226 219 214 210 211 213 218 225 233 241 257 271 278 282 288 295 299 302 304 305 303 300 297 294 291 289 287 284
189 205 220 252 223 261 297 248 110 187 124 126 104 55 19 358 333 282 258 259 249 236 228 216 206 198 195 213 245 270 282 286 291 297 300 303 304 305 308 311 310 308 306 303 299 294 290 284 281
236 217 211 216 202 235 283 263 143 123 141 85 2 322 331 346 334 302 280 266 252 241 226 214 200 201 216 243 269 289 301 304 303 303 304 305 305 307 309 308 308 308 308 306 303 300 298 295 291